Voltar ao catálogo

KUIPER-00046

AtivoComunicaçõesLEO
NORAD 64506·PAYLOAD·🇺🇸 United States

Lançado Jun 23, 2025 de Cape Canaveral Space Force Station

Loading…

Próximas Passagens (próximas 24 horas)

TLE

AtualizadoSource: CelesTrak SupGP

Época: Sep 14, 2026, 20:10 UTC

1 64506C 25134G   26257.84061343  .00000644  00000+0  84332-4 0  2571
2 64506  51.8967 126.5979 0001081 101.2229 272.3101 14.79926092    11

Acompanhe KUIPER-00046 em tempo real com AllMySat

Download on the App Store